Total_Precipitation_Accumulation
0.93 0.84 0.78 0.76 0.76 0.77 0.76 0.71 0.67 0.62 0.55 0.52 0.48 0.42 0.38 0.34 0.31 0.27 0.22 0.21 0.21 0.26 0.40 0.62 0.88 1.12 1.32 1.49 1.60 1.49 1.44 1.30 1.05 0.89 0.87 0.96 1.02 1.08 1.10 1.17 1.18 1.08 1.07
0.93 0.86 0.78 0.77 0.73 0.73 0.75 0.73 0.69 0.63 0.54 0.48 0.43 0.41 0.40 0.38 0.36 0.33 0.29 0.28 0.26 0.27 0.35 0.49 0.69 1.00 1.26 1.44 1.63 1.74 1.61 1.57 1.42 1.14 0.98 0.96 1.00 1.05 1.09 1.17 1.24 1.23 1.16
0.89 0.90 0.86 0.79 0.72 0.68 0.69 0.72 0.74 0.75 0.68 0.58 0.50 0.44 0.41 0.38 0.36 0.33 0.32 0.33 0.32 0.32 0.34 0.43 0.53 0.75 1.08 1.37 1.57 1.80 1.84 1.70 1.72 1.59 1.33 1.13 1.07 1.07 1.13 1.19 1.25 1.33 1.29
0.93 0.94 0.92 0.85 0.78 0.74 0.70 0.67 0.67 0.70 0.70 0.66 0.60 0.56 0.49 0.44 0.37 0.33 0.30 0.30 0.35 0.36 0.36 0.39 0.46 0.58 0.87 1.20 1.54 1.78 2.16 2.03 1.91 1.96 1.90 1.58 1.30 1.21 1.24 1.29 1.34 1.41 1.45
0.96 0.96 0.95 0.91 0.86 0.84 0.79 0.75 0.69 0.63 0.61 0.60 0.57 0.55 0.51 0.49 0.48 0.46 0.39 0.32 0.30 0.35 0.40 0.41 0.45 0.48 0.65 0.97 1.32 1.67 2.17 2.50 2.33 2.24 2.30 2.20 1.84 1.55 1.45 1.49 1.53 1.57 1.64
1.01 0.95 0.94 0.92 0.92 0.89 0.84 0.79 0.75 0.67 0.60 0.57 0.58 0.57 0.51 0.46 0.44 0.42 0.42 0.38 0.33 0.32 0.39 0.45 0.47 0.43 0.46 0.63 0.95 1.40 1.88 2.38 2.64 2.53 2.48 2.53 2.40 2.12 1.88 1.78 1.76 1.82 1.87
1.09 1.02 0.97 0.95 0.94 0.91 0.82 0.77 0.76 0.75 0.72 0.68 0.71 0.68 0.59 0.51 0.47 0.45 0.43 0.41 0.37 0.33 0.35 0.44 0.51 0.47 0.41 0.46 0.58 0.86 1.38 2.06 2.63 2.86 2.83 2.74 2.72 2.55 2.29 2.09 1.96 2.03 2.13
1.18 1.10 1.00 0.99 0.96 0.92 0.87 0.80 0.76 0.77 0.74 0.74 0.77 0.81 0.72 0.64 0.53 0.43 0.42 0.40 0.36 0.36 0.38 0.39 0.48 0.53 0.50 0.44 0.41 0.52 0.81 1.42 2.17 2.78 3.10 3.16 3.11 3.03 2.77 2.49 2.28 2.25 2.35
1.20 1.17 1.08 1.00 0.99 0.98 0.92 0.83 0.77 0.76 0.74 0.67 0.66 0.86 0.90 0.68 0.48 0.40 0.39 0.39 0.38 0.38 0.37 0.38 0.43 0.49 0.55 0.53 0.48 0.49 0.56 0.90 1.55 2.34 2.93 3.25 3.41 3.56 3.44 3.01 2.72 2.58 2.60
1.18 1.15 1.15 1.09 1.01 0.97 0.91 0.86 0.80 0.76 0.77 0.75 0.68 0.66 0.71 0.69 0.68 0.51 0.36 0.35 0.37 0.40 0.40 0.40 0.41 0.46 0.52 0.58 0.59 0.61 0.62 0.70 1.11 1.71 2.45 3.08 3.47 3.80 4.03 3.62 3.13 2.90 2.85
1.28 1.22 1.18 1.19 1.13 1.02 0.93 0.90 0.87 0.84 0.83 0.81 0.75 0.67 0.62 0.56 0.58 0.67 0.49 0.35 0.37 0.37 0.40 0.44 0.46 0.49 0.52 0.57 0.62 0.64 0.72 0.74 0.96 1.36 1.88 2.64 3.31 3.92 4.44 4.28 3.55 3.06 2.90
1.33 1.21 1.17 1.14 1.11 1.04 0.93 0.89 0.90 0.91 0.90 0.84 0.77 0.72 0.72 0.70 0.61 0.66 0.61 0.43 0.41 0.39 0.40 0.46 0.51 0.54 0.55 0.59 0.62 0.72 0.77 0.82 0.92 1.13 1.42 1.94 2.65 3.35 4.19 4.54 4.00 3.34 2.95
1.32 1.22 1.13 1.05 0.99 0.96 0.92 0.87 0.88 0.87 0.86 0.89 0.86 0.77 0.71 0.67 0.64 0.70 0.76 0.64 0.56 0.48 0.47 0.49 0.51 0.58 0.62 0.63 0.66 0.73 0.74 0.83 0.94 1.06 1.19 1.39 1.84 2.59 3.47 4.41 4.64 3.95 3.37
1.19 1.19 1.18 1.09 0.97 0.90 0.90 0.91 0.89 0.86 0.85 0.88 0.86 0.83 0.78 0.68 0.70 0.78 0.88 0.98 0.92 0.66 0.55 0.51 0.48 0.53 0.62 0.68 0.71 0.75 0.70 0.82 0.93 1.04 1.13 1.22 1.37 1.83 2.65 3.65 4.64 4.70 3.99
1.17 1.22 1.19 1.17 1.10 1.01 0.93 0.91 0.91 0.88 0.91 0.89 0.88 0.87 0.89 0.82 0.79 0.80 0.85 1.02 1.30 1.13 0.69 0.50 0.49 0.53 0.61 0.71 0.79 0.77 0.74 0.80 0.88 1.01 1.14 1.22 1.29 1.49 1.88 2.53 3.45 4.43 4.62
1.11 1.23 1.28 1.22 1.24 1.21 1.12 1.02 0.94 0.90 0.95 0.95 0.95 0.96 0.95 0.95 0.95 0.91 0.92 0.97 1.12 1.27 0.96 0.50 0.45 0.49 0.62 0.75 0.88 0.86 0.87 0.96 0.94 1.01 1.10 1.17 1.21 1.33 1.53 1.90 2.47 3.37 4.27
1.02 1.11 1.22 1.24 1.26 1.27 1.23 1.17 1.08 1.02 0.99 0.98 1.02 1.07 1.04 1.03 1.10 1.07 1.01 0.98 1.00 1.12 1.14 0.62 0.46 0.48 0.67 0.88 0.94 0.96 1.01 0.97 0.91 0.96 1.04 1.10 1.16 1.26 1.43 1.66 1.99 2.54 3.40
1.04 1.07 1.19 1.31 1.31 1.28 1.26 1.24 1.20 1.18 1.20 1.14 1.07 1.08 1.11 1.13 1.17 1.16 1.15 1.07 0.97 0.94 1.05 0.87 0.60 0.61 0.73 0.89 0.96 1.00 1.07 1.06 0.97 1.01 1.06 1.13 1.21 1.29 1.43 1.58 1.79 2.06 2.67
1.10 1.08 1.15 1.30 1.37 1.36 1.32 1.24 1.23 1.26 1.32 1.37 1.33 1.29 1.23 1.23 1.25 1.20 1.22 1.18 1.08 0.98 0.97 1.00 0.80 0.71 0.78 0.88 1.00 1.08 1.12 1.12 1.11 1.15 1.10 1.13 1.24 1.33 1.42 1.52 1.63 1.83 2.10
1.11 1.11 1.12 1.19 1.32 1.42 1.49 1.48 1.48 1.42 1.40 1.42 1.43 1.44 1.40 1.40 1.36 1.33 1.33 1.29 1.26 1.26 1.21 1.20 1.06 0.90 0.87 0.90 1.08 1.26 1.34 1.21 1.19 1.18 1.18 1.18 1.26 1.33 1.41 1.40 1.36 1.52 1.77
1.13 1.13 1.13 1.12 1.20 1.46 1.81 1.78 1.67 1.59 1.46 1.36 1.29 1.29 1.35 1.50 1.56 1.63 1.68 1.58 1.55 1.65 1.62 1.54 1.35 1.16 1.05 1.10 1.22 1.31 1.53 1.46 1.35 1.26 1.26 1.18 1.21 1.21 1.23 1.28 1.34 1.47 1.66
1.23 1.17 1.13 1.11 1.15 1.37 1.84 1.91 1.61 1.38 1.24 1.21 1.19 1.11 1.10 1.29 1.38 1.51 1.66 1.69 1.77 1.93 2.02 1.95 1.68 1.43 1.17 1.12 1.24 1.46 1.66 1.84 1.75 1.36 1.36 1.37 1.32 1.35 1.26 1.22 1.32 1.41 1.56
1.25 1.22 1.13 1.07 1.04 1.13 1.55 1.67 1.47 1.20 1.06 1.02 1.04 1.02 1.00 1.04 1.17 1.14 1.30 1.41 1.49 1.67 1.90 2.01 1.98 1.56 1.29 1.18 1.45 1.65 1.70 1.82 1.73 1.50 1.57 1.75 1.56 1.49 1.37 1.34 1.37 1.30 1.39
1.29 1.23 1.16 1.08 1.04 1.01 1.36 1.56 1.44 1.09 0.93 0.86 0.85 0.84 0.84 0.89 1.01 1.17 1.27 1.27 1.21 1.31 1.59 1.80 1.96 1.77 1.56 1.51 1.75 2.03 2.15 2.16 1.96 1.75 1.72 2.05 1.82 1.67 1.57 1.46 1.39 1.25 1.26
1.20 1.18 1.13 1.04 1.01 0.99 1.21 1.53 1.53 1.14 0.96 0.84 0.81 0.81 0.77 0.77 1.05 1.29 1.26 1.19 1.08 1.09 1.27 1.56 1.79 1.88 1.94 2.06 2.22 2.51 2.69 2.64 2.47 2.11 1.88 2.05 2.05 1.94 1.80 1.70 1.52 1.32 1.21
1.14 1.15 1.13 1.05 0.99 0.95 1.12 1.50 1.69 1.24 1.05 0.93 0.85 0.82 0.91 0.96 1.17 1.26 1.17 1.20 1.23 1.11 1.06 1.13 1.24 1.36 1.45 1.62 1.96 2.24 2.49 2.63 2.59 2.53 2.08 2.03 2.15 2.20 2.42 2.01 1.60 1.28 1.14